Tracking 29892 objects as of 21-Nov-2024
HD Live streaming from Space Station
objects crossing your sky now

ONEWEB-0399

Track ONEWEB-0399 now!
10-day predictions
ONEWEB-0399 is classified as:


NORAD ID: 50479
Int'l Code: 2021-132L
Perigee: 1,223.5 km
Apogee: 1,226.2 km
Inclination: 87.9 °
Period: 109.8 minutes
Semi major axis: 7595 km
RCS: Unknown
Launch date: December 27, 2021
Source: United Kingdom (UK)
Launch site: TYURATAM MISSILE AND SPACE COMPLEX (TTMTR)
Your satellite tracking list
Your tracking list is empty




NASA's NSSDC Master Catalog

Two Line Element Set (TLE):
1 50479U 21132L   24325.90361286 -.00000329  00000-0 -96357-3 0  9994
2 50479  87.8876 135.3052 0001779  97.1887 262.9443 13.11404018141744
Source of the keplerian elements: AFSPC